SCP
0 0 0 0 0 0 0 0 0 0 0 0 0 0 0 0 0 0 0 0 0 0 0 0 0 0 0 0 0 0 0 0 0 0 0 0 0 0
0 0 0 0 0 0 0 0 0 0 0 0 0 0 0 0 0 0 0 0 0 0 0 0 0 0 0 0 0 0 0 0 0 0 0 0 0 0
0 0 0 0 0 0 0 0 0 0 0 0 0 0 0 0 0 0 0 0 0 0 0 0 0 0 0 0 0 0 0 0 0 0 0 0 0 0
0 0 0 0 0 0 0 0 0 0 0 0 0 0 0 0 0 0 0 0 0 0 0 0 0 0 0 0 0 0 0 0 0 0 0 0 0 0
0 0 0 0 0 0 0 0 0 0 0 0 0 0 0 0 0 0 0 0 0 0 0 0 0 0 0 0 0 0 0 0 0 0 0 0 0 0
0 0 0 0 0 0 0 0 0 0 0 0 0 0 0 0 0 0 0 0 0 0 0 0 0 0 0 0 0 0 0 0 0 0 0 0 0 0
0 0 0 0 0 0 0 0 0 0 0 0 0 0 0 0 0 0 0 0 0 0 0 0 0 0 0 0 0 0 0 0 0 0 0 0 0 0
0 0 0 0 0 0 0 0 0 0 0 0 0 0 0 0 0 0 0 0 0 0 0 0 0 0 0 0 0 0 0 0 0 0 0 0 0 0
0 0 0 0 0 0 0 0 0 0 0 0 0 0 0 0 0 0 0 0 0 0 0 0 0 0 0 0 0 0 0 0 0 0 0 0 0 0
0 0 0 0 0 0 0 0 0 0 0 0 0 0 0 0 0 0 0 0 0 0 0 0 0 0 0 0 0 0 0 0 0 0 0 0 0 0
0 0 0 0 0 0 0 0 0 0 0 0 0 0 0 0 0 0 0 0 0 0 0 0 0 0 0 0 0 0 0 0 0 0 0 0 0 0
0 0 0 0 0 0 0 0 0 0 0 0 0 0 0 0 0 0 0 0 0 0 0 0 0 0 0 0 0 0 0 0 0 0 0 0 0 0
0 0 0 0 0 0 0 0 0 0 0 0 0 0 0 0 0 0 0 0 0 0 0 0 0 0 0 0 0 0 0 0 0 0 0 0 0 0
0 0 0 0 0 0 0 0 0 0 0 0 0 0 0 0 0 0 0 0 0 0 0 0 0 0 0 0 0 0 0 0 0 0 0 0 0 0
0 0 0 0 0 0 0 0 0 0 0 0 0 0 0 0 0 0 0 0 0 0 0 0 0 0 0 0 0 0 0 0 0 0 0 0 0 0
0 0 0 0 0 0 0 0 0 0 0 0 0 0 0 0 0 0 0 0 0 0 0 0 0 0 0 0 0 0 0 0 0 0 0 0 0 0
0 0 0 0 0 0 0 0 0 0 0 0 0 0 0 0 0 0 0 0 0 0 0 0 0 0 0 0 0 0 0 0 0 0 0 0 0 0
0 0 0 0 0 0 0 0 0 0 0 0 0 0 0 0 0 0 0 0 0 0 0 0 0 0 0 0 0 0 0 0 0 0 0 0 0 0
0 0 0 0 0 0 0 0 0 0 0 0 0 0 0 0 0 0 0 0 0 0 0 0 0 0 0 0 0 0 0 0 0 0 0 0 0 0
0 0 0 0 0 0 0 0 0 0 0 0 0 0 0 0 0 0 0 0 0 0 0 0 0 0 0 0 0 0 0 0 0 0 0 0 0 0
0 0 0 0 0 0 0 0 0 0 0 0 0 0 0 0 0 0 0 0 0 0 0 0 0 0 0 0 0 0 0 0 0 0 0 0 0 0
0 0 0 0 0 0 0 0 0 0 0 0 0 0 0 0 0 0 0 0 0 0 0 0 0 0 0 0 0 0 0 0 0 0 0 0 0 0
0 0 0 0 0 0 0 0 0 0 0 0 0 0 0 0 0 0 0 0 0 0 0 0 0 0 0 0 0 0 0 0 0 0 0 0 0 0
Wind_Speed
4 4 3 2 3 3 3 3 3 2 3 3 2 2 3 4 5 4 5 7 8 8 9 8 8 8 8 8 8 8 8 8 7 7 7 8 8 8
3 3 3 2 2 2 3 3 3 3 3 2 3 2 2 3 4 5 5 6 8 8 8 8 8 8 8 8 8 8 8 8 8 8 8 8 8 8
4 4 4 3 2 2 2 3 3 3 4 3 2 2 2 2 2 3 3 4 4 6 7 8 8 8 8 8 8 8 8 8 9 9 9 8 8 9
5 4 4 3 3 3 3 3 3 4 3 4 2 1 2 2 2 2 2 3 3 5 7 7 8 8 8 8 8 8 8 8 8 8 8 8 9 9
6 6 5 4 4 3 3 3 3 3 3 3 2 1 1 1 1 1 1 2 3 3 5 6 7 7 7 7 8 8 8 8 8 8 8 8 8 9
5 6 5 6 6 5 4 4 3 2 2 2 2 2 2 1 1 1 2 2 2 2 2 3 4 5 6 6 7 7 8 8 9 9 9 9 9 9
5 5 6 7 7 5 4 4 4 3 2 2 2 2 2 1 2 2 2 2 2 2 2 2 2 2 3 5 6 7 7 8 9 9 9 9 9 9
5 4 4 5 5 6 6 6 5 4 4 3 3 3 3 3 2 2 2 2 2 1 2 2 1 3 3 3 4 6 6 7 7 8 8 9 9 9
4 3 3 3 3 3 3 3 2 3 4 3 3 3 3 3 2 3 3 3 3 1 1 2 1 3 2 2 3 3 4 5 5 6 6 7 7 8
3 3 3 2 1 2 2 1 0 0 2 2 2 3 2 2 2 3 3 2 2 1 1 3 2 2 2 2 2 2 3 3 4 4 5 5 6 6
1 1 2 1 1 3 3 2 0 1 1 1 1 1 1 2 0 1 1 2 2 2 1 2 2 2 3 2 2 2 2 2 3 3 4 4 5 4
2 2 2 2 2 2 2 2 1 1 1 2 2 2 2 2 1 1 1 2 2 2 1 2 2 1 2 2 2 2 2 2 3 4 4 4 3 2
2 2 3 5 4 4 2 1 0 1 2 2 2 2 2 2 2 1 0 1 2 2 1 1 1 1 2 3 2 2 2 2 2 2 3 3 3 3
3 3 3 6 6 5 3 3 3 3 2 2 2 2 2 2 2 2 2 2 2 3 2 1 1 2 2 3 4 3 2 2 2 3 3 3 3 4
4 6 6 6 6 5 6 6 4 3 3 2 2 2 2 3 3 2 3 2 1 2 2 1 2 2 2 4 4 4 3 3 2 3 3 3 3 3
5 6 8 8 6 6 6 5 4 4 3 2 2 3 3 3 3 3 3 3 2 3 3 4 3 2 3 4 3 4 3 3 3 4 4 4 3 3
6 5 5 5 5 5 5 5 4 4 4 3 3 3 3 4 4 4 3 3 3 4 4 4 4 3 3 3 3 4 4 4 4 4 4 5 4 4
7 6 5 5 4 4 4 4 4 4 3 3 3 3 3 3 4 4 3 3 3 4 4 5 5 3 3 2 2 4 4 5 5 4 4 5 6 5
7 6 5 4 4 4 4 4 3 3 3 3 3 3 3 3 3 3 4 3 3 4 4 4 4 4 5 5 3 2 4 5 5 5 5 5 6 6
6 5 4 4 4 4 4 3 3 4 4 4 4 3 3 3 3 3 3 4 4 4 4 4 4 4 5 6 5 5 5 5 5 6 6 6 6 7
5 4 4 4 4 3 3 3 3 4 4 4 4 4 4 3 3 4 4 5 4 4 5 5 5 7 5 4 4 5 5 5 6 6 7 6 6 5
5 4 4 4 3 3 3 3 4 4 4 4 4 4 4 4 4 4 4 4 4 5 5 5 6 5 4 4 6 7 7 7 6 7 8 7 5 5
4 4 4 4 4 3 3 4 4 4 4 4 4 4 4 4 4 4 4 4 4 5 5 5 5 5 5 5 6 6 9 9 7 6 6 6 8 9
Wind_Direction
207 205 206 210 199 200 192 185 180 225 265 268 268 253 230 228 230 224 230 231 230 232 232 234 235 236 237 241 243 243 240 239 238 241 244 247 248 249
202 205 213 210 203 198 199 203 199 198 236 251 250 266 254 242 222 221 228 232 234 234 234 235 237 237 237 240 243 242 239 237 237 240 242 245 246 246
200 200 211 202 200 200 195 198 203 197 228 259 254 261 244 247 239 224 229 231 235 233 233 233 234 236 238 239 241 241 238 238 239 241 242 244 245 245
202 197 210 200 201 201 198 208 209 207 215 245 257 254 245 243 233 235 238 232 234 235 233 236 235 236 237 238 238 237 236 238 241 243 244 245 246 246
202 202 207 197 207 209 208 213 212 206 207 222 247 246 250 248 225 245 252 257 248 243 235 236 235 235 237 240 239 237 235 236 238 240 241 243 246 249
207 207 208 205 209 211 212 213 205 197 198 215 239 249 250 255 233 243 260 251 262 268 254 242 238 236 241 244 243 240 236 234 236 238 239 241 244 247
214 213 214 213 210 210 212 204 195 197 201 214 230 233 241 232 237 235 246 265 264 249 260 258 249 253 251 245 242 242 241 238 238 240 241 242 243 245
214 217 217 210 212 216 219 206 193 196 204 210 225 229 242 240 239 231 237 248 268 241 238 270 249 262 264 254 247 241 244 245 246 246 244 244 245 246
203 201 206 197 189 200 202 191 199 215 206 204 220 236 244 235 222 231 229 235 250 287 233 269 271 273 277 277 256 251 253 253 252 253 253 252 252 250
192 188 186 187 192 175 166 143 164 258 233 220 229 244 255 257 227 236 239 237 252 264 227 257 271 271 287 286 280 258 259 264 269 273 271 262 253 247
137 127 147 148 169 152 151 156 129 9 26 147 219 278 329 336 253 193 211 225 261 265 218 246 270 277 277 276 298 303 283 286 290 286 280 271 262 254
87 75 79 98 88 117 143 152 191 288 45 42 26 358 346 356 16 224 241 240 257 275 267 240 268 285 287 281 304 312 305 308 302 297 292 285 275 257
101 78 60 73 78 76 88 102 148 82 66 61 37 14 11 12 13 360 288 239 246 262 305 235 269 271 266 287 294 299 308 311 310 301 294 290 273 241
107 93 76 74 72 67 68 56 56 65 67 61 44 16 2 353 346 340 317 271 265 273 303 266 257 261 269 277 284 297 302 310 311 311 316 306 273 250
97 92 85 77 71 63 54 53 55 59 66 58 33 5 356 349 350 350 357 350 356 352 351 316 288 288 268 269 281 291 302 308 310 311 310 302 296 287
92 85 79 72 67 60 51 50 52 53 54 45 24 6 3 7 10 5 359 356 3 359 357 356 339 308 287 281 276 283 290 296 308 306 305 298 293 285
98 80 67 61 59 53 50 47 45 45 44 32 29 22 16 15 11 9 10 9 5 343 342 347 342 326 293 283 284 289 294 295 298 309 305 300 294 287
89 78 71 66 63 57 54 49 45 42 36 34 30 25 22 17 10 8 10 10 0 346 339 339 342 338 329 303 266 289 299 302 303 301 295 292 292 294
81 78 73 66 59 55 52 49 38 27 26 31 29 22 17 14 9 6 5 359 350 338 330 332 337 336 325 317 312 284 299 306 305 302 295 288 287 291
74 77 73 67 60 55 49 42 36 31 30 27 23 17 11 6 2 357 352 346 336 329 328 332 333 329 312 305 304 309 299 294 301 301 299 294 288 286
73 69 64 63 59 54 47 39 34 29 25 24 20 13 5 0 355 348 344 339 333 329 327 326 323 315 304 298 297 304 310 301 289 295 301 300 301 298
73 69 60 57 55 49 44 38 35 28 22 19 12 8 3 359 354 350 347 344 340 333 326 325 328 328 325 318 313 311 314 317 310 291 276 269 285 290
68 65 60 52 46 42 40 38 36 27 19 11 5 1 359 355 348 345 344 342 336 334 332 329 331 332 328 320 315 313 315 318 317 317 316 307 287 280